This demonstration page uses our WeatherBlox Daily Observations layout. Learn more.

41.55636, -103.73856

Hourly Observations for May 16, 2015

Temp ( °F °C ) Dew Point ( °F °C ) Humidity (%) Winds ( mph kmh ) Pressure ( in mb ) Visibility ( mi km ) Precip ( " mm )
12:53 am 00:53 Mostly Cloudy 47 8.3 43 6.1 86 86 WNW 8 13 29.63 1004 10 16.0934 0 0
1:53 am 01:53 Mostly Clear 44 6.7 41 5 89 89 NW 5 7 29.59 1002 10 16.0934 0 0
2:53 am 02:53 Partly Cloudy 43 6.1 41 5 93 93 NW 6 9 29.6 1003 10 16.0934 0 0
3:53 am 03:53 Mostly Cloudy 45 7.2 42 5.6 90 90 N 8 13 29.63 1003 10 16.0934 0 0
4:53 am 04:53 Partly Cloudy 43 6.1 41 5 93 93 WSW 5 7 29.63 1003 10 16.0934 0 0
5:53 am 05:53 Mostly Cloudy 43 6.1 41 5 93 93 NNW 10 17 29.64 1004 10 16.0934 0 0
6:53 am 06:53 Sunny 46 7.8 43 6.1 89 89 W 6 9 29.63 1003 10 16.0934 0 0
7:53 am 07:53 Sunny 51 10.6 44 6.7 77 77 WNW 6 9 29.62 1003 10 16.0934 0 0
8:53 am 08:53 Sunny 56 13.3 45 7.2 67 67 NW 10 17 29.62 1003 10 16.0934 0 0
9:53 am 09:53 Sunny 62 16.7 41 5 46 46 NW 13 20 29.59 1002 10 16.0934 0 0
10:53 am 10:53 Mostly Sunny 64 17.8 41 5 43 43 W 10 17 29.57 1001 10 16.0934 0 0
11:53 am 11:53 Mostly Sunny 66 18.9 38 3.3 36 36 W 9 15 29.57 1001 10 16.0934 0 0
12:53 pm 12:53 Cloudy 67 19.4 37 2.8 33 33 W 8 13 29.57 1001 10 16.0934 0 0
1:53 pm 13:53 Mostly Cloudy 68 20 36 2.2 31 31 VRB 3 6 29.57 1001 10 16.0934 0 0
2:53 pm 14:53 Sunny 71 21.7 34 1.1 26 26 NNW 6 9 29.55 1001 10 16.0934 0 0
3:53 pm 15:53 Sunny 70 21.1 32 0 25 25 VRB 3 6 29.54 1000 10 16.0934 0 0
4:53 pm 16:53 Sunny 70 21.1 31 -0.6 23 23 VRB 3 6 29.55 1001 10 16.0934 0 0
5:53 pm 17:53 Partly Cloudy 66 18.9 43 6.1 43 43 W 9 15 29.56 1001 10 16.0934 0 0
6:53 pm 18:53 Sunny 62 16.7 38 3.3 41 41 WNW 9 15 29.58 1002 10 16.0934 0 0
7:21 pm 19:21 Mostly Cloudy with Nearby Thunderstorms 60 15.6 41 5 50 50 N 7 11 29.53 1000 10 16.0934 0 0
7:40 pm 19:40 Partly Cloudy 57 14 41 5 55 55 N 9 15 29.59 1002 10 16.0934 0 0
7:53 pm 19:53 Mostly Cloudy 57 13.9 43 6.1 60 60 NNW 8 13 29.62 1003 10 16.0934 0 0
8:53 pm 20:53 Clear 53 11.7 44 6.7 72 72 SW 5 7 29.6 1002 10 16.0934 0 0
9:53 pm 21:53 Clear 53 11.7 44 6.7 72 72 SW 3 6 29.6 1002 10 16.0934 0 0
10:53 pm 22:53 Clear 51 10.6 44 6.7 77 77 NW 7 11 29.6 1002 10 16.0934 0 0
11:53 pm 23:53 Mostly Cloudy 50 10 44 6.7 80 80 NW 7 11 29.6 1002 10 16.0934 0 0

Powered by AerisWeather